Location: Zihuatanejo
(17.6330°N, 101.5500°W)
Time: 06:25:53
(UTC-06:00)

Daily predictions for brighter satellites

Satellite Brightness Start Highest point End
(mag) Time Altitude Azimuth Time Altitude Azimuth Time Altitude Azimuth
Cosmos 1025 Rocket 4.1 18:25:36 10° SSE 18:29:10 25° E 18:32:45 10° NE
Fermi 4.4 18:26:06 10° WNW 18:30:00 39° NNE 18:33:52 10° E
Cosmos 921 Rocket 3.0 18:27:25 10° S 18:31:36 88° E 18:35:51 10° NNE
Nadezhda 3 Rocket 4.0 18:27:41 10° S 18:33:48 72° E 18:39:59 10° N
YAOGAN 1 2.5 18:29:41 10° SSE 18:34:00 75° ENE 18:38:18 10° N
CZ-4 R/B 2.0 18:30:16 10° S 18:34:25 65° WSW 18:38:34 10° NNW
GPS 2-18 Rocket1 3.5 18:30:38 10° W 18:34:31 66° SSW 18:38:28 10° ESE
Meteor 1-19 Rocket 4.4 18:30:20 10° S 18:35:55 57° E 18:41:36 10° NNE
SPOT 3 Rocket 3.6 18:32:41 10° SSE 18:37:53 90° ENE 18:43:04 10° NNW
Cosmos 1624 Rocket 4.3 18:33:27 10° S 18:38:24 47° E 18:43:21 10° NNE
MSX 3.9 18:34:47 10° SSE 18:40:24 57° ENE 18:46:01 10° N
Cosmos 1484 Rocket 3.5 18:37:32 10° SE 18:40:52 30° ENE 18:44:11 10° NNE
Cosmos 1371 Rocket 4.0 18:38:05 10° S 18:43:22 72° ESE 18:48:42 10° NNE
CZ-2C R/B 2.8 18:40:21 10° S 18:45:11 71° WSW 18:50:12 10° NNW
Cosmos 1833 Rocket 4.1 18:42:54 10° NE 18:45:50 14° ENE 18:48:46 10° E
BREEZE-M DEB (TANK) 3.3 18:39:14 10° NW 18:46:26 52° NE 18:49:12 10° ESE
Cosmos 1743 3.8 18:44:17 10° NNE 18:47:24 23° E 18:50:28 10° SE
Cosmos 1975 2.8 18:43:36 10° N 18:47:38 85° E 18:51:39 10° S
Cosmos 2082 Rocket 3.4 18:44:49 10° NNE 18:48:48 19° ENE 18:52:47 10° ESE
COSMOS 2487 3.4 18:47:00 10° NNE 18:50:06 27° ENE 18:53:10 10° SE
Helios 1B rocket 4.4 18:50:11 11° E 18:50:50 11° E 18:52:00 10° ESE
Cosmos 1500 3.1 18:48:05 10° N 18:51:55 73° E 18:55:46 10° S
COSMOS 2441 4.3 18:47:44 10° SSE 18:52:31 65° ENE 18:57:20 10° N
Cosmos 494 Rocket 4.2 18:49:13 10° NNW 18:54:28 79° WSW 18:59:43 10° S
Meteor 1-28 Rocket 3.1 18:53:39 10° NNE 18:57:25 75° E 19:01:11 10° S
GPS 2-14 Rocket1 2.8 18:57:05 10° WNW 19:01:03 63° N 19:03:54 18° E
ATLAS 2AS CENTAUR R/B 2.9 18:54:41 10° NNW 19:02:28 87° ENE 19:09:30 10° SSE
Meteor 1-23 Rocket 4.3 18:56:52 10° S 19:02:33 61° E 19:08:08 10° NNE
IDEFIX/ARIANE 42P 3.8 18:57:58 10° S 19:02:57 46° W 19:07:55 10° NNW
Palapa 6 Rocket 3.9 19:01:38 10° WNW 19:08:22 60° N 19:12:11 20° E
Meteor 2-4 Rocket 3.6 19:06:30 10° S 19:11:57 88° W 19:17:19 10° N
Cosmos 1892 Rocket 3.7 19:09:10 10° SSE 19:13:20 50° E 19:17:05 13° NNE
Cosmos 1452 Rocket 4.1 19:09:28 10° SSE 19:14:12 35° E 19:16:49 22° NE
Hubble Space Telescope 2.8 19:11:02 10° W 19:14:31 26° SSW 19:18:00 10° SSE
Cosmos 2369 Rocket 2.9 19:11:08 10° SSE 19:16:07 33° ESE 19:18:34 23° ENE
Meteor 2-9 Rocket 4.4 19:21:27 10° NNE 19:26:27 40° E 19:31:23 10° SSE
Delta 142 3.6 19:27:55 10° SW 19:32:01 66° SSE 19:33:26 41° E
OTV 4 1.0 19:33:41 10° WNW 19:36:37 54° SW 19:36:55 51° S
Cosmos 1934 Rocket 3.9 19:32:47 10° N 19:39:01 68° E 19:45:18 10° SSE
Cosmos 1340 2.7 19:36:45 10° S 19:40:31 78° W 19:41:50 39° N
Cosmos 1535 Rocket 4.5 19:36:34 10° N 19:42:48 83° W 19:48:57 10° S
Gbstr 26 Del rocket 4.5 19:36:51 10° SSW 19:44:57 76° SE 19:48:43 35° NE
NOAA 12 4.1 19:44:42 10° S 19:50:00 84° WSW 19:55:17 10° NNW
Cosmos 1606 Rocket 3.4 19:52:33 46° N 19:53:51 89° ENE 19:58:19 10° S
SJ-6B 2.9 19:51:09 10° S 19:54:54 68° W 19:55:06 66° WNW
Cosmos 1943 Rocket 3.4 19:51:10 10° SSE 19:54:13 26° SE 19:54:13 26° SE
OAO 2 Rocket 3.2 19:52:04 10° WSW 19:57:13 81° NNW 19:57:40 73° NNE
Timation 2 Rocket 4.4 19:55:49 10° NNW 20:02:41 71° WSW 20:09:26 10° S
GPS 2-15 Rocket1 3.6 19:59:38 10° W 20:04:14 50° SSW 20:04:30 50° S
METEOR-M 4.4 20:00:40 10° S 20:05:58 68° WSW 20:11:16 10° NNW
Cosmos 1666 3.8 20:05:55 41° WNW 20:06:23 43° W 20:10:05 10° SSW
ATLAS 3B CENTAUR R/B 3.5 19:51:52 10° WNW 20:07:07 44° N 20:08:44 40° NNE
Cosmos 1420 Rocket 4.1 20:02:22 10° S 20:07:02 66° SSE 20:07:02 66° SSE
GPS 2-17 Rocket1 3.9 20:06:46 10° WNW 20:10:15 45° NW 20:10:15 45° NW
Cosmos 1605 Rocket 4.0 20:12:29 10° N 20:18:42 79° W 20:24:49 10° S
Cosmos 2263 4.4 20:19:19 10° SSW 20:24:49 69° W 20:24:49 69° W
Helios 1B rocket 4.3 20:26:34 28° W 20:26:34 28° W 20:29:37 10° SW
Cosmos 1833 Rocket 3.6 20:24:28 10° NNW 20:29:46 45° WSW 20:35:04 10° S
Cosmos 2082 Rocket 3.7 20:27:43 10° NW 20:32:46 34° WSW 20:37:50 10° SSW
Centaur AC-72 3.4 20:51:34 10° WSW 20:55:56 52° SW 20:55:56 52° SW
Cosmos 2369 Rocket 4.3 20:56:04 10° WSW 21:00:01 19° WNW 21:00:26 19° WNW
